Temperature
12 13 13 14 12 12 13 14 15 16 17 18 18 17 16 15 16 16 15 15 16 16 16 16 16 16 17 17 17 17 17 17 17 17 17 17 16 16 16 16 16 16 16 16 15 15 15 15 15
12 12 13 13 11 12 12 14 15 16 17 18 17 16 14 14 14 14 14 15 16 16 16 16 16 16 16 16 17 17 17 17 17 17 17 17 16 16 16 16 16 16 16 16 15 15 15 15 15
12 12 13 11 11 12 14 14 15 16 18 17 15 15 14 13 14 14 14 15 15 15 16 16 16 16 16 16 16 16 17 17 17 17 16 16 16 16 16 16 16 16 16 16 16 15 15 15 15
11 12 12 10 12 12 14 14 15 15 17 16 15 13 13 13 14 14 14 15 15 15 15 15 16 16 16 16 16 16 16 16 16 16 16 16 16 16 16 16 16 16 16 16 15 15 15 15 15
11 12 10 11 12 13 13 15 16 15 15 15 14 12 12 13 14 14 14 15 15 15 15 15 15 16 16 16 16 16 16 16 16 16 16 16 16 16 16 16 16 16 16 16 15 15 15 15 15
11 10 10 10 11 13 14 15 15 14 14 14 13 12 12 13 14 14 14 14 15 15 15 15 15 15 15 16 16 16 16 16 16 16 16 16 16 16 16 16 16 16 16 16 16 15 15 15 15
10 9 10 10 11 13 14 15 15 13 13 14 13 11 11 13 13 14 14 14 14 15 15 15 15 15 15 15 15 15 15 16 15 15 15 15 15 15 15 15 15 15 16 16 15 15 15 15 15
11 9 10 10 11 13 14 14 14 14 13 14 14 12 11 12 13 13 14 14 14 14 14 15 15 15 15 15 15 15 15 15 15 15 15 15 15 15 15 15 15 15 15 15 15 15 15 15 15
11 9 10 10 11 12 13 13 13 14 13 13 13 13 13 13 13 13 13 14 14 14 14 14 14 15 15 15 15 15 15 15 15 15 15 15 15 15 15 15 15 15 15 15 15 15 15 15 14
10 8 10 11 11 11 12 12 13 13 12 11 12 13 13 13 13 13 13 13 13 14 14 14 14 14 15 15 15 15 15 15 15 15 15 15 15 14 14 14 14 14 14 14 14 14 14 14 14
10 9 10 11 12 12 12 12 13 12 11 11 12 12 12 12 13 13 13 13 13 13 14 14 14 14 14 14 14 14 15 14 14 14 14 14 14 14 14 14 14 14 14 14 14 14 14 14 14
9 10 11 11 12 12 12 12 12 12 12 13 13 13 12 12 12 12 13 13 13 13 13 13 13 14 14 14 14 14 14 14 14 14 14 14 14 14 14 14 14 14 14 14 14 14 14 14 14
9 10 10 11 12 11 12 11 11 11 12 12 12 12 12 12 12 12 12 12 13 13 13 13 13 13 14 14 14 14 14 14 14 14 14 14 14 14 14 14 14 14 13 13 13 13 13 13 13
9 10 10 11 11 11 11 10 11 10 11 11 11 11 11 11 11 12 12 12 12 13 13 13 13 13 13 13 13 13 13 13 13 13 13 13 13 13 13 13 13 13 13 13 13 13 13 13 13
10 10 10 10 11 11 11 10 10 11 11 11 11 11 11 11 11 11 12 12 12 12 12 12 13 13 13 13 13 13 13 13 13 13 13 13 13 13 13 13 13 13 13 13 13 12 13 13 13
9 8 9 10 11 11 10 9 10 11 11 10 10 10 10 10 10 11 11 11 12 12 12 12 12 12 12 12 12 13 13 13 13 13 12 12 12 12 12 12 12 12 12 12 12 12 12 12 12
8 8 8 10 11 10 10 9 10 11 11 10 10 10 10 10 10 10 10 11 11 11 11 12 12 12 12 12 12 12 12 12 12 12 12 12 12 12 12 12 12 12 12 12 12 12 12 12 12
8 8 9 9 10 10 9 9 9 10 10 10 10 10 10 10 10 10 10 11 11 11 11 11 11 12 12 12 12 12 12 11 11 11 11 11 11 11 11 11 11 11 11 11 11 11 11 11 11
9 8 9 9 10 10 9 9 9 10 10 10 10 10 10 10 10 10 10 10 11 11 11 11 11 11 11 11 11 11 11 11 11 11 11 11 10 10 10 10 11 11 11 11 11 11 11 11 11
9 8 9 9 10 9 9 9 9 9 10 10 10 10 10 10 10 10 10 10 10 10 11 11 11 11 11 11 11 11 11 10 10 10 10 10 10 10 10 10 10 10 10 10 10 10 10 10 9
8 8 8 9 9 9 9 9 9 9 10 10 11 11 11 11 11 10 10 10 10 10 10 10 10 10 10 10 10 10 10 10 10 9 9 9 9 9 9 9 9 9 9 9 9 9 9 9 9
8 9 9 9 8 7 9 8 9 9 9 9 10 10 11 11 11 10 10 10 10 10 10 10 10 10 10 10 10 10 9 9 9 9 9 9 9 9 9 9 9 9 9 9 9 8 8 8 8
9 9 9 9 8 8 8 8 8 8 9 9 9 10 11 11 11 11 11 10 10 10 10 10 10 10 10 9 9 9 9 9 9 9 8 8 8 8 8 8 8 8 8 8 8 8 8 8 7
9 8 8 6 6 8 8 8 8 7 8 9 9 10 11 11 11 11 10 10 10 10 9 9 9 9 9 9 9 9 9 9 8 8 8 8 8 8 8 8 8 8 8 8 7 7 7 7 7
8 6 6 7 6 7 7 7 7 8 9 9 10 10 11 11 10 10 10 10 10 9 9 9 9 9 9 9 9 8 8 8 8 8 8 8 8 8 7 7 7 7 7 7 7 7 7 6 6
8 7 6 7 7 6 7 7 7 9 9 10 10 11 11 10 10 10 10 10 10 9 9 9 9 9 8 8 8 8 8 8 8 8 7 7 7 7 7 7 7 7 7 6 6 6 6 6 6
8 6 7 5 6 6 6 7 8 9 9 9 9 10 10 10 10 10 10 10 9 9 9 9 8 8 8 8 8 8 8 8 7 7 7 7 7 7 6 6 6 6 6 6 6 6 6 5 5
8 7 5 6 7 7 7 6 7 8 8 8 8 9 10 10 10 10 10 9 9 9 9 8 8 8 8 8 8 7 7 7 7 7 7 7 6 6 6 6 6 6 6 5 5 5 5 5 5
7 7 6 5 5 6 7 7 7 8 8 8 8 9 10 10 10 10 9 9 9 9 8 8 8 8 8 7 7 7 7 7 7 7 6 6 6 6 6 6 5 5 5 5 5 5 5 5 5
7 7 6 6 6 5 5 6 8 8 8 8 9 10 10 10 10 10 9 9 9 9 8 8 8 8 7 7 7 7 7 7 7 6 6 6 6 6 5 5 5 5 5 5 4 4 4 4 4
Wind_Speed
6 5 2 3 3 2 7 6 4 4 3 2 3 7 8 6 4 6 3 4 8 8 10 13 13 13 12 12 11 11 11 11 10 10 10 10 9 8 7 7 6 6 6 6 6 6 6 6 6
3 2 3 3 4 5 7 6 5 5 6 5 5 6 7 6 4 6 3 6 9 9 11 12 13 13 13 12 11 11 10 10 10 9 9 9 8 8 7 6 6 6 6 5 5 5 5 5 4
2 1 2 3 5 9 6 5 8 3 2 4 5 6 6 5 3 3 4 7 9 9 11 12 13 13 13 12 11 10 10 9 9 8 8 8 7 7 7 6 6 6 5 5 5 4 4 3 2
1 2 1 3 8 7 6 4 5 3 2 4 6 7 4 3 1 3 6 9 10 8 10 12 13 13 13 12 11 10 9 9 8 7 7 6 6 6 6 6 5 5 4 4 3 3 2 2 1
2 2 2 4 6 4 4 4 3 3 3 4 6 7 4 4 5 7 8 9 10 8 9 11 12 12 12 11 10 9 8 8 7 6 6 5 5 4 4 4 4 3 3 2 2 1 1 1 1
2 2 3 5 4 3 4 3 2 2 3 4 6 7 4 1 6 7 8 8 9 9 9 10 12 12 11 11 10 9 8 7 6 5 5 4 4 3 3 3 2 2 1 1 0 0 1 2 3
3 4 4 4 3 4 4 1 2 4 4 4 5 7 5 3 5 7 9 8 9 9 9 9 9 10 10 10 9 8 8 7 6 5 5 4 3 3 2 1 1 1 1 1 1 2 3 3 4
3 3 3 4 4 4 2 1 1 4 4 3 4 8 7 5 6 9 10 9 8 8 8 8 8 8 8 9 9 8 8 7 6 6 6 5 5 4 3 2 2 1 1 2 2 3 4 5 5
2 2 3 4 5 3 1 2 3 3 6 4 4 4 7 10 9 11 10 8 7 8 6 7 7 8 8 7 8 8 8 8 7 6 6 6 5 4 3 3 3 2 2 2 3 3 4 5 6
3 2 4 3 3 3 0 2 2 4 6 6 7 8 10 9 11 11 9 7 6 6 5 5 6 7 8 7 7 8 8 8 7 6 6 6 5 4 4 4 4 4 3 3 4 4 5 5 6
2 3 2 3 2 3 3 3 3 7 4 5 11 12 9 10 10 10 8 7 6 5 5 5 5 7 7 6 6 6 7 7 7 6 6 6 6 6 6 5 5 5 4 4 5 5 5 5 5
2 2 2 3 1 3 3 3 5 4 4 6 10 11 10 10 9 9 8 7 6 6 5 5 5 6 6 7 5 6 6 6 6 6 5 5 4 5 5 4 4 4 4 4 4 4 5 5 5
1 1 3 5 8 7 9 7 6 5 7 10 12 11 10 10 8 7 7 7 6 6 5 5 5 5 6 6 5 5 5 5 6 6 6 5 4 3 3 3 4 4 5 4 4 4 4 4 5
2 3 4 6 7 6 10 6 5 4 8 11 11 9 9 8 8 7 7 7 6 6 4 4 5 5 6 5 4 4 5 6 7 7 7 6 5 4 3 3 4 4 5 4 4 3 3 3 4
2 5 7 6 5 3 7 8 3 4 8 10 9 8 8 7 7 7 6 6 6 5 4 4 5 6 5 5 5 5 6 6 6 6 8 8 7 5 4 3 3 4 5 5 4 4 3 3 3
4 5 4 5 4 3 6 3 1 3 8 8 7 7 7 5 6 6 6 5 5 5 4 4 4 5 5 4 4 5 6 6 6 7 8 8 8 7 5 3 3 5 5 4 2 2 3 3 4
5 4 3 3 4 3 4 3 2 3 8 7 6 6 6 5 4 4 5 6 5 5 4 4 4 4 4 4 4 5 6 6 6 7 7 8 9 8 6 4 4 5 4 3 3 2 2 3 5
3 3 2 1 2 4 3 1 1 3 6 7 6 6 6 6 5 5 5 5 5 4 4 4 4 4 3 3 3 4 4 4 5 6 6 8 8 9 7 5 6 6 3 3 3 3 3 3 4
5 5 4 0 0 3 2 1 2 2 4 6 6 6 6 6 5 5 5 5 5 4 4 3 3 2 3 2 2 2 2 2 3 4 6 7 8 8 7 5 5 5 3 4 4 3 3 3 3
6 7 4 2 2 2 2 1 2 3 4 6 7 7 7 6 5 5 5 4 4 4 3 3 2 2 2 1 0 0 0 1 1 3 5 6 7 7 6 5 4 4 3 5 5 4 2 2 3
5 3 3 3 3 4 3 3 3 3 2 3 5 6 7 9 8 7 6 5 5 4 4 3 2 2 1 1 1 2 2 2 2 3 3 4 5 6 6 5 4 4 3 3 4 4 3 3 3
3 1 2 3 4 1 2 1 5 3 3 4 5 6 7 7 7 7 7 7 6 6 4 4 3 2 1 1 1 1 1 0 1 1 2 3 4 5 5 5 4 4 3 4 4 4 3 2 2
1 1 3 3 4 2 2 2 6 1 4 7 7 7 7 7 7 8 8 8 7 6 5 4 3 2 2 1 2 2 1 1 1 1 2 2 3 4 4 4 4 3 2 3 3 4 3 2 2
2 5 6 6 5 1 1 3 5 4 6 6 6 6 6 6 6 6 6 5 5 4 4 4 4 3 3 2 2 3 3 2 1 1 2 2 2 2 3 3 3 3 2 2 2 2 3 3 2
7 6 5 5 4 4 3 2 7 6 6 6 6 7 6 6 6 6 6 6 6 6 5 5 5 4 4 3 3 4 4 3 4 3 2 2 1 2 3 2 2 2 2 2 2 2 2 2 2
2 5 5 3 3 4 4 4 7 5 3 1 2 3 5 5 5 6 7 7 7 7 6 6 6 5 5 4 4 4 4 3 3 4 3 3 2 3 2 2 2 3 3 2 2 1 2 2 2
2 2 4 5 1 2 5 6 7 1 2 1 2 3 4 5 5 6 6 6 6 7 7 7 7 6 5 5 5 4 4 4 4 4 3 3 3 2 2 2 2 2 2 1 1 1 1 2 2
2 3 4 3 2 2 5 5 4 5 3 2 2 3 4 4 5 5 6 6 6 6 6 5 6 7 6 6 5 4 5 5 5 4 4 4 3 2 2 2 2 1 1 1 1 1 1 1 2
1 1 3 3 3 4 3 6 5 5 4 4 5 5 5 5 6 6 5 5 5 5 5 6 6 6 6 6 5 5 5 5 4 4 5 4 4 3 3 3 2 2 1 1 0 1 1 1 2
3 3 4 3 2 3 3 7 5 3 3 3 4 4 4 5 5 5 5 4 4 5 5 6 6 7 7 6 6 6 5 5 5 5 5 5 4 3 3 3 2 2 2 1 1 1 1 1 2
Wind_Direction
313 344 49 61 93 142 223 230 215 172 173 176 106 104 111 103 134 148 140 120 122 128 133 130 127 124 122 117 116 115 111 108 105 102 99 97 95 93 94 96 94 93 93 96 101 99 98 93 92
347 6 62 84 151 191 234 218 214 200 175 143 89 84 83 78 66 101 106 122 119 122 124 125 125 123 123 119 116 118 115 111 106 103 100 98 95 89 84 88 92 92 91 92 99 102 103 98 98
346 108 125 132 180 198 216 205 207 223 161 127 90 60 85 98 90 99 127 129 114 109 114 118 120 121 121 120 117 117 118 114 108 104 100 96 94 91 84 84 89 86 89 90 92 101 108 110 107
67 84 92 168 213 220 213 206 189 165 95 77 105 79 61 27 91 118 126 122 112 103 108 114 115 119 118 117 117 115 118 115 110 107 105 100 97 93 88 84 85 83 88 90 87 97 113 128 147
80 121 158 210 227 240 231 230 177 142 117 96 107 99 65 3 78 98 111 113 113 105 102 108 109 112 115 114 115 112 116 116 111 108 105 103 100 97 94 87 85 81 88 95 94 90 117 206 243
104 112 161 207 227 250 238 240 136 100 108 104 101 104 105 75 90 96 102 103 107 105 95 98 102 103 105 108 108 107 107 111 109 106 102 100 98 93 91 88 84 78 79 91 129 279 254 273 274
140 134 175 185 199 223 232 232 141 132 111 122 124 108 128 132 107 104 98 95 94 91 86 82 88 95 97 99 101 100 95 99 98 91 84 83 85 81 73 56 58 50 13 310 286 277 271 274 281
153 128 163 183 183 216 237 43 62 107 113 83 99 129 152 171 128 103 90 85 83 78 76 73 73 78 82 86 87 88 85 82 84 79 74 72 69 60 53 33 14 349 323 310 303 295 287 282 283
114 99 188 196 188 207 269 78 38 45 89 60 58 121 140 137 120 100 89 78 73 68 63 64 63 63 69 81 79 76 77 72 70 67 66 64 50 43 42 27 19 358 338 322 318 311 304 295 288
99 156 217 226 207 185 179 95 122 80 69 74 74 83 111 117 113 108 107 99 86 75 64 58 58 56 60 69 68 66 66 63 60 57 57 51 43 36 31 22 16 1 345 332 325 319 316 309 299
128 189 251 297 245 157 106 64 49 112 98 140 135 131 122 112 109 111 109 108 102 90 73 55 54 57 60 57 60 57 57 54 49 46 48 47 40 31 25 19 10 5 356 344 330 328 321 311 301
101 329 325 318 43 77 87 86 59 66 135 135 131 128 117 115 115 118 117 111 101 88 76 59 54 52 56 60 55 57 53 47 39 33 37 44 36 26 17 15 3 2 354 346 339 325 316 310 299
51 351 21 47 61 75 79 72 83 68 94 105 108 106 112 114 112 111 114 110 101 88 73 59 58 52 51 51 46 50 47 45 38 34 37 43 44 27 14 6 2 354 350 341 333 328 321 313 307
163 82 46 39 59 54 75 53 73 87 106 107 110 112 114 118 121 114 111 109 100 93 81 64 61 55 54 51 44 42 42 45 45 37 35 41 43 35 21 10 5 357 348 337 329 326 317 307 309
82 61 37 23 54 48 73 46 65 129 112 113 119 121 119 123 123 123 127 121 114 105 89 75 76 58 54 49 42 46 44 50 46 38 36 35 36 32 30 20 5 351 349 351 350 347 339 331 323
41 53 47 2 48 50 86 108 164 137 122 126 132 131 130 133 133 131 130 122 118 109 92 70 65 55 49 47 45 47 51 51 43 39 37 32 30 32 30 20 357 352 359 360 348 347 334 328 321
42 70 71 7 22 59 95 158 213 156 137 143 147 146 144 142 140 142 139 134 129 121 110 86 65 53 41 38 46 50 54 47 39 41 38 31 28 28 27 17 358 358 5 4 349 348 330 319 321
128 108 94 101 1 73 91 153 197 165 152 158 161 161 163 166 175 162 148 141 129 117 106 91 71 53 43 36 42 41 40 32 31 33 34 35 29 25 23 19 7 8 12 4 351 330 324 309 312
127 113 107 123 346 89 111 156 231 195 170 175 181 180 183 189 185 166 155 145 129 116 112 104 86 55 51 43 44 39 14 2 8 18 27 34 31 26 27 21 10 12 17 3 353 339 334 339 339
94 97 86 48 32 91 103 296 258 227 201 194 189 190 191 189 180 174 166 159 153 152 150 139 124 94 71 72 75 161 182 356 354 8 16 24 30 24 28 27 12 9 13 12 8 3 350 341 359
56 107 131 121 51 53 77 343 290 269 243 216 200 194 193 190 189 187 182 182 176 179 177 170 165 142 114 76 60 40 38 23 11 1 356 359 18 28 29 27 22 10 16 8 358 1 3 331 328
51 358 104 100 87 354 97 233 272 253 260 244 226 207 204 199 189 186 185 188 194 198 183 173 173 172 179 129 120 129 134 199 280 314 327 343 8 17 23 19 17 14 12 7 352 6 350 337 328
155 2 51 75 95 41 29 129 284 259 240 246 237 220 209 199 189 191 194 194 196 190 183 186 181 190 201 183 167 151 171 210 259 314 327 334 351 1 8 10 13 11 2 356 352 352 353 347 334
69 45 45 45 63 29 270 164 270 238 227 242 233 221 206 197 194 197 196 185 185 185 188 191 193 209 210 204 197 192 205 219 236 273 286 296 320 330 343 355 360 358 351 344 340 342 349 347 345
50 70 42 15 12 263 295 201 251 257 246 233 223 211 201 192 184 188 188 191 193 195 201 203 202 218 217 212 217 215 220 221 225 240 244 259 286 297 305 323 330 331 330 336 347 353 351 348 341
19 114 141 174 222 282 323 246 260 282 297 254 182 173 177 185 190 196 199 200 200 203 203 203 209 220 218 216 224 225 225 224 231 232 228 233 242 255 274 288 303 318 324 330 348 352 334 345 344
85 93 155 132 147 283 288 293 306 329 5 49 110 142 181 200 204 208 208 209 209 209 209 207 210 220 222 223 225 229 231 226 230 234 230 235 241 246 253 266 288 305 314 323 343 358 333 339 330
122 137 89 109 141 270 300 288 266 269 261 246 204 207 222 221 225 225 217 218 219 217 216 213 213 218 222 222 225 229 229 228 229 226 232 237 242 240 239 254 261 274 294 336 15 347 336 346 323
89 98 106 115 153 164 260 274 239 232 221 220 229 231 230 228 232 232 228 226 224 220 216 218 222 224 227 225 226 230 233 232 229 229 234 234 236 229 231 235 241 253 264 270 277 299 324 322 319
193 185 145 150 223 179 197 267 278 233 210 208 233 246 246 239 239 233 229 229 228 228 224 224 225 226 228 224 223 228 233 232 232 236 235 228 228 226 224 221 225 238 243 243 230 250 267 263 279
Height
1511 1512 1514 1517 1520 1525 1523 1516 1509 1507 1507 1507 1507 1508 1510 1516 1521 1528 1526 1526 1529 1531 1533 1535 1537 1539 1540 1541 1542 1543 1544 1544 1545 1545 1545 1546 1546 1546 1546 1546 1546 1546 1546 1546 1546 1546 1546 1546 1546
1510 1512 1515 1515 1520 1527 1521 1510 1507 1504 1504 1505 1507 1509 1511 1516 1518 1521 1523 1526 1529 1531 1533 1535 1537 1539 1540 1541 1542 1543 1544 1544 1545 1545 1545 1546 1546 1546 1546 1546 1546 1546 1546 1546 1546 1546 1546 1546 1546
1508 1510 1513 1514 1517 1518 1513 1505 1504 1502 1503 1504 1507 1510 1513 1517 1519 1521 1523 1526 1529 1531 1533 1535 1537 1538 1539 1541 1542 1543 1543 1544 1545 1545 1545 1546 1546 1546 1546 1546 1546 1546 1546 1546 1546 1546 1546 1546 1546
1508 1510 1511 1514 1513 1508 1503 1501 1500 1501 1502 1504 1506 1512 1515 1519 1519 1521 1523 1526 1529 1531 1533 1535 1537 1538 1539 1540 1541 1542 1543 1544 1544 1545 1545 1545 1546 1546 1546 1546 1546 1546 1546 1546 1546 1546 1546 1546 1546
1506 1507 1511 1512 1509 1504 1500 1498 1499 1500 1501 1504 1505 1511 1516 1519 1520 1522 1524 1526 1529 1531 1533 1535 1536 1538 1539 1540 1541 1542 1543 1543 1544 1544 1545 1545 1545 1545 1545 1545 1545 1545 1545 1545 1545 1545 1545 1545 1545
1505 1506 1512 1513 1508 1502 1499 1498 1499 1500 1502 1504 1506 1511 1518 1520 1521 1522 1524 1527 1529 1531 1533 1535 1536 1538 1539 1540 1541 1541 1542 1543 1544 1544 1544 1544 1545 1545 1545 1545 1545 1545 1544 1544 1544 1544 1544 1544 1544
1504 1506 1508 1508 1507 1503 1500 1499 1499 1500 1502 1504 1505 1510 1516 1520 1521 1523 1525 1527 1529 1531 1533 1535 1536 1537 1539 1540 1540 1541 1542 1542 1543 1543 1544 1544 1544 1544 1544 1544 1544 1543 1543 1543 1543 1543 1543 1543 1543
1502 1505 1506 1507 1505 1502 1499 1499 1500 1500 1502 1505 1506 1509 1514 1518 1521 1523 1525 1527 1529 1531 1533 1534 1536 1537 1538 1539 1540 1540 1541 1542 1542 1543 1543 1543 1543 1543 1543 1543 1542 1542 1542 1542 1542 1542 1542 1541 1541
1501 1507 1506 1504 1502 1500 1498 1499 1500 1501 1502 1504 1506 1508 1512 1516 1520 1522 1525 1527 1529 1531 1533 1534 1535 1537 1537 1538 1539 1540 1540 1541 1541 1542 1542 1542 1542 1542 1542 1542 1541 1541 1541 1541 1540 1540 1540 1539 1539
1501 1506 1503 1499 1498 1498 1498 1499 1500 1502 1503 1505 1507 1510 1513 1517 1520 1522 1524 1527 1529 1531 1532 1534 1535 1536 1537 1537 1538 1539 1539 1540 1540 1541 1541 1541 1541 1541 1540 1540 1540 1540 1539 1539 1538 1538 1538 1537 1537
1500 1502 1499 1497 1496 1496 1497 1499 1500 1501 1506 1506 1507 1510 1514 1517 1520 1522 1525 1527 1529 1530 1532 1533 1534 1535 1536 1537 1537 1538 1538 1539 1539 1539 1539 1539 1539 1539 1539 1539 1538 1538 1538 1537 1537 1536 1536 1535 1535
1501 1500 1498 1497 1495 1496 1497 1499 1502 1503 1506 1507 1509 1512 1515 1518 1520 1523 1525 1527 1529 1531 1532 1533 1534 1535 1536 1536 1536 1537 1537 1537 1537 1537 1538 1538 1538 1537 1537 1537 1536 1536 1535 1535 1534 1534 1533 1533 1532
1501 1500 1499 1497 1496 1498 1498 1501 1504 1507 1508 1510 1512 1514 1517 1519 1522 1524 1526 1528 1530 1531 1532 1533 1534 1534 1535 1535 1535 1536 1536 1536 1536 1536 1536 1536 1536 1536 1535 1535 1534 1534 1533 1532 1532 1531 1531 1530 1530
1501 1501 1500 1499 1499 1501 1502 1505 1507 1511 1511 1512 1514 1516 1519 1521 1523 1524 1526 1528 1529 1531 1532 1532 1533 1534 1534 1534 1534 1534 1534 1534 1534 1535 1534 1534 1534 1534 1533 1533 1532 1532 1531 1530 1529 1529 1528 1528 1527
1501 1502 1503 1503 1503 1505 1504 1511 1512 1513 1513 1515 1516 1518 1520 1522 1524 1525 1527 1528 1529 1531 1532 1532 1533 1533 1533 1533 1533 1533 1533 1533 1533 1533 1533 1532 1532 1531 1531 1531 1530 1529 1529 1528 1527 1526 1526 1525 1524
1504 1508 1511 1508 1506 1507 1511 1518 1515 1515 1515 1516 1518 1520 1522 1523 1524 1526 1527 1528 1529 1531 1531 1532 1532 1532 1532 1533 1533 1532 1532 1531 1531 1531 1530 1530 1529 1529 1529 1528 1528 1527 1526 1525 1525 1524 1523 1522 1521
1510 1515 1515 1512 1508 1509 1513 1518 1516 1516 1516 1517 1519 1521 1522 1524 1525 1526 1527 1528 1529 1530 1531 1531 1531 1532 1532 1532 1532 1531 1531 1530 1529 1529 1528 1528 1527 1526 1526 1526 1525 1525 1524 1523 1522 1521 1520 1519 1518
1516 1516 1516 1516 1512 1512 1515 1518 1517 1517 1517 1518 1520 1521 1522 1523 1525 1526 1527 1528 1529 1530 1530 1530 1531 1531 1531 1531 1530 1530 1530 1529 1528 1527 1526 1526 1525 1524 1524 1523 1523 1522 1521 1520 1519 1518 1517 1516 1515
1511 1515 1517 1516 1513 1515 1518 1518 1518 1517 1518 1519 1520 1520 1521 1523 1525 1526 1527 1528 1529 1529 1530 1530 1530 1530 1530 1529 1529 1529 1528 1527 1527 1526 1525 1524 1524 1523 1522 1521 1520 1519 1518 1517 1517 1516 1515 1514 1512
1513 1517 1519 1517 1515 1517 1520 1520 1518 1517 1517 1517 1518 1519 1520 1521 1523 1524 1526 1527 1528 1528 1529 1529 1529 1529 1529 1528 1528 1527 1527 1526 1525 1524 1523 1523 1522 1522 1520 1519 1518 1517 1516 1515 1514 1513 1512 1511 1510
1516 1519 1519 1519 1519 1519 1521 1523 1520 1517 1516 1516 1517 1517 1518 1520 1521 1523 1524 1525 1526 1527 1527 1528 1528 1527 1527 1527 1526 1526 1525 1525 1524 1523 1522 1521 1520 1520 1518 1517 1516 1515 1514 1513 1512 1511 1510 1509 1508
1520 1517 1517 1518 1524 1529 1526 1532 1522 1519 1517 1516 1515 1516 1517 1518 1520 1521 1522 1523 1524 1525 1526 1526 1526 1526 1526 1525 1525 1524 1524 1523 1523 1522 1521 1520 1519 1518 1517 1516 1514 1513 1512 1510 1509 1508 1507 1507 1506
1519 1517 1518 1520 1524 1530 1528 1533 1527 1519 1518 1515 1513 1513 1514 1516 1518 1519 1520 1522 1523 1524 1524 1524 1524 1524 1524 1524 1523 1523 1522 1521 1520 1520 1519 1518 1517 1516 1515 1514 1512 1511 1509 1508 1507 1506 1505 1504 1503
1518 1520 1522 1528 1531 1533 1528 1533 1528 1521 1515 1512 1511 1511 1513 1515 1516 1518 1519 1520 1521 1522 1522 1522 1522 1522 1522 1522 1521 1521 1520 1519 1518 1517 1517 1516 1515 1514 1513 1511 1510 1508 1507 1506 1505 1504 1503 1502 1501
1522 1530 1541 1539 1543 1538 1531 1531 1527 1514 1510 1509 1508 1509 1510 1513 1515 1516 1517 1518 1519 1519 1520 1520 1520 1520 1520 1519 1519 1518 1517 1517 1516 1515 1514 1513 1512 1511 1510 1509 1507 1506 1505 1503 1502 1501 1500 1499 1498
1526 1530 1541 1543 1543 1542 1533 1531 1521 1511 1509 1507 1507 1508 1510 1511 1513 1514 1515 1516 1517 1517 1518 1518 1518 1518 1517 1517 1516 1516 1515 1514 1513 1512 1511 1510 1510 1509 1507 1506 1504 1503 1502 1501 1499 1499 1497 1496 1495
1527 1532 1532 1541 1543 1543 1537 1529 1517 1510 1510 1509 1509 1509 1509 1511 1512 1513 1514 1514 1515 1515 1516 1516 1515 1515 1515 1514 1514 1513 1512 1511 1510 1509 1508 1507 1507 1505 1504 1503 1502 1500 1499 1498 1497 1496 1495 1494 1493
1527 1529 1537 1539 1540 1540 1536 1532 1526 1514 1512 1510 1510 1509 1510 1510 1511 1512 1512 1512 1513 1513 1513 1513 1513 1512 1512 1511 1511 1510 1509 1508 1507 1506 1505 1504 1503 1502 1501 1500 1499 1498 1497 1496 1494 1493 1492 1491 1490
1529 1530 1534 1540 1541 1542 1538 1532 1515 1512 1510 1509 1509 1509 1509 1509 1510 1510 1510 1510 1511 1510 1510 1510 1510 1509 1509 1508 1507 1507 1506 1505 1504 1502 1502 1501 1500 1499 1498 1497 1496 1495 1494 1493 1491 1490 1489 1488 1487
1527 1528 1533 1538 1539 1543 1545 1534 1510 1509 1508 1508 1508 1508 1508 1508 1508 1508 1508 1508 1508 1507 1507 1507 1506 1506 1505 1505 1504 1503 1502 1501 1500 1499 1498 1498 1497 1496 1495 1494 1493 1492 1491 1489 1488 1487 1486 1485 1484